www.pogodaiklimat.ru

Погода и климат >> Архив погоды >> Катар >> Абу Самба


ПОГОДА в Абу Самба

  • Прогноз погоды в Абу Самба
  • Монитор погоды в Абу Самба

АРХИВ ПОГОДЫ в Абу Самба

Время (UTC), дата Ветер
(напр.,м/с)
 
Видим.   Явления Облачность Т
(С)
Тd
(С)
f
(%)
Тe
(С)
Тes
(С)
Комфортность P
(гПа)
Po
(гПа)
Тmin
(С)
Tmax
(С)
R
(мм)
R24
(мм)
S
(см)
21 17.03 СЗ 5 6000 м н/о +19.9 +11.9 60 +21 +21 комфорт 1016.8 1016.2
00 18.03 СЗ 12 4000 м н/о +19.5 +6.1 42 +19 +19 1015.7 1015.1
03 19.03 СЗ 8 20 км н/о +23.9 +8.6 38 +25 +25 комфорт 1017.5 1016.9
06 19.03 СЗ 8 20 км н/о +23.9 +8.6 38 +25 +25 комфорт 1017.5 1016.9 +20.2
09 19.03 С 10 20 км н/о +23.0 +5.1 31 +23 +23 комфорт 1018.8 1018.2
12 19.03 СЗ 14 20 км н/о +23.4 +9.0 40 +25 +25 комфорт 1015.6 1015.0
15 19.03 СЗ 11 20 км н/о +22.2 +9.7 45 +24 +24 комфорт 1016.4 1015.8
18 19.03 С 7 20 км н/о +19.8 +7.5 45 +20 +20 1017.4 1016.8 +26.2
21 19.03 З 10 20 км н/о +19.3 +10.6 57 +19 +19 1016.4 1015.8
00 20.03 СЗ 11 20 км н/о +17.9 +7.6 51 +17 +17 1014.7 1014.1
03 20.03 СЗ 13 20 км н/о +17.7 +6.4 47 +16 +16 1015.7 1015.1
06 20.03 СЗ 12 20 км н/о +20.5 +10.9 54 +21 +21 комфорт 1017.0 1016.4 +17.5
09 20.03 СЗ 12 20 км н/о +22.8 +13.2 55 +26 +26 жарко 1015.4 1014.8
12 20.03 СЗ 14 20 км н/о +22.5 +13.4 56 +25 +25 комфорт 1012.9 1012.3
15 20.03 СЗ 12 20 км н/о +21.9 +13.5 59 +25 +25 комфорт 1013.3 1012.7
18 20.03 С 8 20 км н/о +21.0 +12.9 60 +23 +23 комфорт 1014.7 1014.1 +23.0
21 20.03 СЗ 9 20 км н/о +19.8 +13.5 67 +21 +21 комфорт 1014.1 1013.5
00 21.03 штиль 0 20 км н/о +17.0 +8.9 59 +17 +17 1013.2 1012.6
21 22.03 штиль 0 20 км н/о +21.6 +14.6 64 +25 +25 комфорт 1011.9 1011.3
00 23.03 С 9 20 км н/о +21.3 +14.6 66 +24 +24 комфорт 1010.5 1009.9
12 23.03 СВ 10 н/о н/о +29.9 +15.7 42 +33 +33 душно 1007.6 1007.0
15 23.03 СВ 16 8000 м н/о +24.9 +16.7 60 +28 +28 жарко 1008.4 1007.8
18 23.03 СВ 11 12 км н/о +22.6 +16.6 69 +27 +27 душно 1009.8 1009.2 +31.4
21 23.03 СВ 2 10 км н/о +21.2 +16.5 75 +25 +25 комфорт 1008.9 1008.3
00 24.03 СЗ 7 10 км н/о +21.1 +18.2 84 +25 +25 комфорт 1008.4 1007.8
03 24.03 С 5 10 км н/о +20.5 +17.6 83 +24 +24 комфорт 1009.1 1008.5
06 24.03 штиль 0 9000 м н/о +22.2 +18.1 78 +27 +27 душно 1010.6 1010.0 +18.9
09 24.03 СЗ 4 10 км н/о +24.4 +19.2 73 +29 +29 душно 1008.2 1007.6
12 24.03 штиль 0 11 км н/о +33.8 +14.6 32 +35 +35 очень
жарко
1005.5 1004.9
15 24.03 В 13 10 км н/о +28.3 +16.1 48 +32 +32 душно 1005.0 1004.4
18 24.03 В 19 11 км н/о +23.0 +18.6 76 +29 +29 очень
душно
1006.5 1005.9 +33.9

 

Местоположение метеостанции Абу Самба (Катар): широта 24.75 долгота 50.82 высота над уровнем моря 8 м.

В архиве по умолчанию представлена погода в Абу Самба за последнюю неделю. Архивные данные за месяц целиком и за предыдущие месяцы, начиная с января 2011 года, Вы можете получить, выбрав интересующий диапазон дат из раскрывающегося списка и нажав кнопку "Ввод!".


*Определитесь, кто Вы:
робот инопланетянин человек

Внимание! Время в таблицах - всемирное. Для получения местного времени необходимо прибавить поправку, которая равна 4 ч.

Смотрите также архив погоды в соседних городах и на ближайших метеорологических станциях:

Погода в Духане (Катар) (73 км)
Погода в Доха порту (Катар) (80 км)
Погода в Дохе (Катар) (94 км)
Погода в Аэропорту Хамад (Катар) (98 км)
Погода в Эль-Хуфуфе (Саудовская Аравия) (148 км)
Погода в Бахрейне (Бахрейн) (170 км)
Погода в Дахране (Саудовская Аравия) (181 км)
Погода в Эд-Даммаме (Саудовская Аравия) (214 км)
Погода в Бендер-Дейере (Иран) (360 км)
Погода в Абу-Даби Батин аэропорту (ОАЭ) (370 км)

Пояснения к столбцам:

Ветер - указаны скорость ветра в м/с - средняя за 10 мин, порывы в срок и между сроками (в фигурных скобках) и направление, откуда дует ветер: С - северный, СВ - северо-восточный, В - восточный, ЮВ - юго-восточный, Ю - южный, ЮЗ - юго-западный, З - западный, СЗ - северо-западный.
Видимость - горизонтальная дальность видимости в метрах или километрах. При видимости от 1 до 10 км при отсутствии осадков обычно наблюдается дымка, при ухудшении видимости до 1 км и менее - туман. В сухую погоду видимость может ухудшаться дымом, пылью или мглою.
Явления - указаны атмосферные явления, наблюдавшиеся в срок или в последний час перед сроком; фигурными скобками обозначены явления, наблюдавшиеся между сроками (за 1-3 часа до срока); квадратными скобками обозначены град или гололедные отложения с указанием их диаметра в мм.
Облачность - указаны через наклонную черту общая и нижняя облачность в баллах и высота нижней границы облаков в метрах; квадратными скобками обозначены формы облаков: Ci - перистые, Cs - перисто-слоистые, Cc - перисто-кучевые, Ac - высококучевые, As - высокослоистые, Sc - слоисто-кучевые, Ns - слоисто-дождевые, Cu - кучевые, Cb - кучево-дождевые. Подробнее классификацию облаков см. в Атласе облаков (PDF).
T - Температура воздуха - температура, измеренная на высоте 2 м над землей.
Td - Температура точки росы - температура, при понижении до которой содержащийся в воздухе водяной пар достигнет насыщения.
f - Относительная влажность воздуха - влажноcть воздуха, измеренная на высоте 2 м над землей.
Te - Эффективная температура - температура, которую ощущает одетый по сезону человек в тени. Характеристика душности погоды. При расчете учитывается влияние влажности воздуха и скорости ветра на теплоощущения человека.
Tes - Эффективная температура на солнце - температура, которую ощущает человек, с поправкой на солнечный нагрев. Характеристика знойности погоды. Зависит от высоты солнца над горизонтом, облачности и скорости ветра. Ночью, в пасмурную погоду, а также при ветре 12 м/с и более поправка равна нулю.
P - Атмосферное давление - приведенное к уровню моря атмосферное давление.
Po - Атмосферное давление - измеренное на уровне метеостанции атмосферное давление.
Tmin - Минимальная температура - минимум температуры воздуха на высоте 2 м над землей.
Tmax - Максимальная температура - максимум температуры воздуха на высоте 2 м над землей.
R - Количество осадков - Количество выпавших осадков за период времени, мм. При наведении курсора мыши на число - период времени, за который выпало указанное количество осадков.
R24 - Количество осадков - Количество выпавших осадков за 24 часа, мм.
S - Снежный покров - Высота снежного покрова, см. При наведении курсора мыши на число - состояние снежного покрова и степень покрытия местности в баллах.